This is the latest recevied weather packets stored in our database for station/object KC5CAM-13. If no packets are shown the sender has not sent any weather packets the latest 10 day(s).
| Time | Temp. | Humidity | Pressure | Rain* | Wind** | Luminosity | Snow |
|---|---|---|---|---|---|---|---|
| 1777769482 | 21.67° C | 49% | 1018.9 hPa | 0 mm | - | 11 W/m² | - |
| 1777769178 | 22.22° C | 48% | 1019.4 hPa | 0 mm | - | 14 W/m² | - |
| 1777768877 | 22.22° C | 46% | 1019.2 hPa | 0 mm | - | 16 W/m² | - |
| 1777768574 | 22.22° C | 46% | 1019.3 hPa | 0 mm | - | 19 W/m² | - |
| 1777768270 | 22.22° C | 46% | 1019.2 hPa | 0 mm | - | 21 W/m² | - |
| 1777767967 | 22.78° C | 46% | 1019.3 hPa | 0 mm | - | 25 W/m² | - |
| 1777767664 | 22.78° C | 46% | 1019.3 hPa | 0 mm | - | 27 W/m² | - |
| 1777767360 | 22.78° C | 46% | 1019.1 hPa | 0 mm | - | 30 W/m² | - |
| 1777767058 | 22.78° C | 45% | 1019.1 hPa | 0 mm | - | 33 W/m² | - |
| 1777766755 | 23.33° C | 46% | 1019.3 hPa | 0 mm | - | 35 W/m² | - |
| 1777766452 | 23.33° C | 44% | 1019.4 hPa | 0 mm | - | 38 W/m² | - |
| 1777766148 | 23.89° C | 44% | 1019 hPa | 0 mm | - | 40 W/m² | - |
| 1777765847 | 23.89° C | 46% | 1019.1 hPa | 0 mm | - | 48 W/m² | - |
| 1777765542 | 23.89° C | 43% | 1019.3 hPa | 0 mm | - | 44 W/m² | - |
| 1777765240 | 24.44° C | 41% | 1019.4 hPa | 0 mm | - | 115 W/m² | - |
| 1777764940 | 23.89° C | 44% | 1019.3 hPa | 0 mm | - | 82 W/m² | - |
| 1777764638 | 24.44° C | 42% | 1019.3 hPa | 0 mm | - | 163 W/m² | - |
| 1777764333 | 24.44° C | 41% | 1019.5 hPa | 0 mm | - | 169 W/m² | - |
| 1777764031 | 25° C | 43% | 1019.3 hPa | 0 mm | - | 182 W/m² | - |
| 1777763728 | 25° C | 42% | 1019.3 hPa | 0 mm | - | 198 W/m² | - |
| 1777763426 | 25.56° C | 41% | 1019.1 hPa | 0 mm | - | 217 W/m² | - |
| 1777763124 | 26.11° C | 39% | 1019.4 hPa | 0 mm | - | 228 W/m² | - |
| 1777762822 | 26.11° C | 41% | 1019.5 hPa | 0 mm | - | 251 W/m² | - |
| 1777762517 | 25.56° C | 42% | 1019.4 hPa | 0 mm | - | 275 W/m² | - |
| 1777762214 | 25.56° C | 40% | 1019.6 hPa | 0 mm | - | 299 W/m² | - |
* Rain latest hour (hover to see other rain measurements)
** Current wind speed in m/s (hover to see current wind gust speed)